Simultaneous Nadir Overpasses (SNOs) Predictions

Prediction of SNOs between METOP-A and TERRA Satellite Orbit:

Table of predicted SNOs for the next 14.0 days since TLE Epoch: 1/20/2012
Index Date Time (METOP-A) METOP-A Lat,Lon TERRA Lat,Lon Distance(km) Time Diff (sec)
1 01/20/2012 19:13:19 -81.27, 117.80 -81.27, 117.97 2.87 73
2 01/20/2012 20:03:58 81.28, -74.12 81.28, -74.29 2.95 0
3 01/20/2012 20:54:38 -81.29, 93.50 -81.29, 93.63 2.41 74
4 01/23/2012 14:47:44 -81.27,-175.54 -81.27,-175.66 2.18 61
5 01/23/2012 15:38:24 81.28, -7.90 81.27, -7.95 1.28 13
6 01/26/2012 10:22:09 -81.28,-108.94 -81.28,-109.02 1.40 48
7 01/26/2012 11:12:49 81.28, 58.66 81.28, 58.66 0.12 26
8 01/29/2012 05:56:33 -81.28, -42.39 -81.28, -42.48 1.64 35
9 01/29/2012 06:47:13
